Date,TemperatureHighF,TemperatureAvgF,TemperatureLowF,DewpointHighF,DewpointAvgF,DewpointLowF,HumidityHigh,HumidityAvg,HumidityLow,PressureMaxIn,PressureMinIn,WindSpeedMaxMPH,WindSpeedAvgMPH,GustSpeedMaxMPH,PrecipitationSumIn
2013-1-1,27,24,21,22,18,15,83,79,76,30.18,30.13,9,4,14,0.00
2013-1-2,28,22,17,20,15,9,86,75,67,30.22,30.15,15,5,19,0.00
2013-1-3,32,24,16,27,18,9,89,80,70,30.24,30.11,16,7,20,0.00
2013-1-4,34,26,17,25,21,12,85,79,64,30.25,30.13,18,8,26,0.00
2013-1-5,34,30,21,32,26,19,95,86,75,30.25,30.03,15,5,26,0.00
2013-1-6,35,34,32,32,30,27,91,84,76,30.33,29.94,21,7,28,0.01
2013-1-7,35,29,20,28,24,18,92,82,65,30.38,30.16,31,8,34,0.01
2013-1-8,40,34,27,31,28,24,89,79,68,30.23,30.12,19,5,29,0.00
2013-1-9,48,41,33,36,33,27,85,73,53,30.49,30.06,25,11,30,0.01
2013-1-10,42,34,25,35,29,24,95,83,67,30.55,30.11,13,4,24,0.02
2013-1-11,54,48,38,53,46,37,98,94,91,30.02,29.74,15,8,27,0.17
2013-1-12,56,48,39,51,43,37,93,83,75,30.00,29.89,12,4,19,0.04
2013-1-13,39,32,23,37,31,19,97,94,86,30.17,29.85,17,6,23,0.03
2013-1-14,25,22,19,19,18,15,88,82,75,30.47,30.17,17,5,21,0.01
2013-1-15,30,23,16,23,18,14,92,82,66,30.44,30.22,5,1,7,0.06
2013-1-16,36,33,25,31,24,19,86,69,56,30.01,29.86,22,12,30,0.04
2013-1-17,32,29,25,28,20,16,84,70,65,30.38,30.21,19,9,24,0.03
2013-1-18,39,34,24,29,25,17,78,68,62,30.40,29.98,30,13,42,0.04
2013-1-19,47,41,37,38,33,29,78,73,68,29.99,29.73,31,12,41,0.10
2013-1-20,42,22,17,32,14,11,84,73,56,30.25,29.76,31,10,41,0.02
2013-1-21,14,11,9,11,8,6,90,88,84,30.21,30.10,17,10,29,0.00
2013-1-22,12,8,6,10,5,2,90,86,81,30.34,30.21,12,7,20,0.00
2013-1-23,20,16,11,18,11,6,93,83,74,30.27,30.09,18,7,21,0.00
2013-1-24,19,14,9,15,9,7,93,81,64,30.63,30.20,17,3,22,0.00
2013-1-25,26,22,16,24,18,7,93,86,67,30.48,30.00,13,6,16,0.00
2013-1-26,29,26,22,23,20,18,93,80,76,30.45,30.07,12,2,17,0.02
2013-1-27,34,27,21,31,23,17,93,84,75,30.45,30.02,20,6,26,0.01
2013-1-28,48,41,34,48,40,32,99,98,94,30.03,29.87,25,6,30,0.14
2013-1-29,59,54,37,58,54,37,100,98,92,29.98,29.44,27,10,30,0.02
2013-1-30,53,42,29,53,41,28,100,97,90,29.44,29.16,23,8,29,0.02
2013-1-31,19,16,13,16,13,11,93,87,78,30.03,29.76,20,12,27,0.01
2013-2-1,13,11,9,11,8,5,93,88,77,30.33,30.03,18,9,25,0.00
2013-2-2,24,18,11,23,16,7,96,93,85,30.24,29.99,9,3,18,0.00
2013-2-3,22,17,14,19,15,12,94,90,83,30.04,29.94,16,6,29,0.00
2013-2-4,27,24,20,24,21,17,95,90,85,29.97,29.87,6,2,9,0.00
2013-2-5,30,24,17,28,22,15,95,92,83,30.03,29.82,14,5,24,0.03
2013-2-6,35,30,24,26,23,21,91,76,62,30.27,30.02,9,3,15,0.20
2013-2-7,42,33,29,33,29,25,96,84,69,30.19,29.85,12,4,16,0.14
2013-2-8,34,31,30,33,28,24,97,88,74,30.31,29.85,18,7,24,0.14
2013-2-9,36,30,19,28,25,17,93,79,70,30.42,30.19,15,6,19,0.11
2013-2-10,47,37,29,46,33,24,97,84,76,30.19,29.58,15,8,26,0.11
2013-2-11,49,37,31,47,31,24,95,77,69,29.99,29.57,30,15,38,0.02
2013-2-12,31,29,28,25,24,23,84,82,77,30.11,29.99,19,8,24,0.01
2013-2-13,43,35,23,33,29,21,91,80,66,29.84,29.75,7,2,8,0.09
2013-2-14,41,36,30,35,32,27,93,85,74,29.96,29.69,26,9,32,0.52
2013-2-15,34,28,23,29,23,17,93,80,72,30.19,29.96,11,4,18,0.01
2013-2-16,21,18,15,17,14,11,91,83,73,30.14,30.10,22,8,24,0.00
2013-2-17,28,21,15,19,14,11,92,78,51,30.23,30.13,11,2,17,0.04
2013-2-18,51,37,24,45,29,16,93,73,65,30.14,29.57,23,9,33,0.14
2013-2-19,17,17,16,15,14,13,91,89,87,30.08,30.04,16,9,21,0.30
2013-2-20,23,21,16,20,18,14,92,89,86,30.34,30.20,16,7,19,0.00
2013-2-21,26,25,21,21,20,17,86,82,79,30.37,30.19,9,5,17,0.00
2013-2-22,33,31,30,32,28,25,96,88,82,29.93,29.90,17,9,25,0.00
2013-2-23,30,28,26,26,23,20,87,82,74,29.98,29.92,17,8,21,0.00
2013-2-24,34,30,25,28,25,22,93,83,77,30.19,29.95,15,4,16,0.04
2013-2-25,41,30,19,29,24,18,96,80,57,30.22,30.06,10,2,14,0.01
2013-2-26,33,33,32,32,31,25,97,92,75,29.83,29.50,14,6,24,0.32
2013-2-27,35,33,32,34,33,31,98,98,97,29.62,29.49,9,2,13,0.57
2013-2-28,37,34,32,34,31,28,97,89,85,30.02,29.76,16,7,21,0.06
2013-3-1,31,29,26,28,24,20,88,82,76,30.17,30.01,7,3,10,0.02
2013-3-2,29,27,23,24,21,17,83,77,70,30.16,30.11,16,6,23,0.00
2013-3-3,31,26,22,23,19,16,82,73,56,30.13,30.07,15,4,21,0.00
2013-3-4,35,30,17,23,20,15,93,68,55,30.16,30.06,9,4,13,0.00
2013-3-5,32,31,28,28,24,22,97,78,67,30.10,29.82,12,6,16,0.00
2013-3-6,34,33,33,32,32,31,96,94,92,30.28,30.23,7,3,11,0.22
2013-3-7,34,31,26,32,29,24,96,92,78,30.44,30.27,10,2,11,0.22
2013-3-8,41,30,17,28,23,16,96,77,56,30.51,30.42,11,2,14,0.01
2013-3-9,43,41,33,36,33,28,82,74,64,30.29,29.96,15,9,20,0.00
2013-3-10,59,48,41,48,41,35,94,76,67,29.96,29.71,14,6,25,0.23
2013-3-11,54,45,34,48,42,32,98,92,71,29.76,29.63,18,6,24,0.15
2013-3-12,35,33,30,32,30,27,94,90,73,29.97,29.76,19,9,30,0.03
2013-3-13,30,27,25,28,22,17,95,80,59,30.32,29.97,20,10,28,0.01
2013-3-14,39,31,24,28,22,17,86,69,53,30.32,30.15,13,4,14,0.01
2013-3-15,39,36,32,36,33,28,96,92,82,30.15,29.83,6,2,9,0.03
2013-3-16,37,34,29,36,32,23,97,93,79,30.12,29.71,7,3,16,0.03
2013-3-17,36,32,29,26,23,20,81,70,60,30.24,30.10,14,5,22,0.01
2013-3-18,34,31,28,33,27,21,96,88,76,30.10,29.61,22,8,33,0.05
2013-3-19,32,27,22,25,19,16,84,71,58,30.05,29.75,26,15,32,0.05
2013-3-20,23,20,19,16,14,12,89,76,68,30.06,30.01,23,10,27,0.00
2013-3-21,24,21,19,20,18,15,92,87,76,30.04,29.95,14,3,18,0.00
2013-3-22,34,28,18,24,21,16,92,75,59,30.10,30.03,12,3,17,0.02
2013-3-23,37,29,22,27,24,20,94,81,63,30.14,30.05,11,2,13,0.01
2013-3-24,38,32,27,29,26,23,87,78,65,30.06,29.65,20,6,23,0.00
2013-3-25,37,33,31,30,28,25,84,79,74,30.02,29.65,18,7,24,0.00
2013-3-26,36,34,33,32,30,29,90,86,83,30.24,30.03,12,3,17,0.01
2013-3-27,42,37,30,34,29,23,94,75,49,30.33,30.24,16,4,25,0.01
2013-3-28,45,40,28,34,28,24,95,64,46,30.34,30.32,15,4,19,0.00
2013-3-29,48,40,25,32,27,23,94,62,40,30.33,30.29,13,4,18,0.00
2013-3-30,56,54,50,38,37,36,60,53,47,30.03,29.95,15,6,21,0.00
2013-3-31,55,48,41,44,40,31,97,75,59,29.84,29.71,18,9,26,0.08
2013-4-1,34,32,28,22,19,16,72,57,50,30.17,30.03,19,8,26,0.00
2013-4-2,40,33,27,23,19,15,81,57,40,30.32,30.16,16,6,24,0.00
2013-4-3,41,32,22,25,20,16,91,64,36,30.45,30.32,14,3,18,0.00
2013-4-4,54,37,26,34,24,21,86,64,35,30.38,29.99,12,2,14,0.00
2013-4-5,48,39,32,35,31,27,85,73,46,30.23,29.98,13,3,17,0.00
2013-4-6,66,49,32,46,34,27,86,58,42,30.21,29.71,22,8,33,0.00
2013-4-7,63,50,42,50,42,35,88,74,53,30.01,29.65,29,9,48,0.04
2013-4-8,50,44,40,45,38,35,95,81,72,30.01,29.86,17,5,19,0.23
2013-4-9,73,54,40,63,49,39,97,86,69,30.04,29.83,12,4,21,0.02
2013-4-10,52,45,41,49,44,40,97,94,91,29.97,29.87,15,6,19,0.22
2013-4-11,43,42,40,42,41,39,98,97,96,29.91,29.62,18,7,23,1.32
2013-4-12,45,40,37,40,37,33,99,89,75,29.86,29.60,19,9,28,0.48
2013-4-13,42,39,34,35,32,29,90,76,60,30.02,29.85,22,9,32,0.02
2013-4-14,61,46,33,49,39,30,92,77,61,30.06,29.81,18,6,28,0.01
2013-4-15,65,58,45,58,53,44,96,85,76,29.98,29.81,22,8,27,0.67
2013-4-16,47,44,41,44,40,35,98,86,64,30.27,29.97,9,3,13,1.02
2013-4-17,50,45,42,45,40,35,96,81,68,30.30,29.92,17,5,21,0.61
2013-4-18,71,62,46,67,60,45,100,95,86,29.93,29.49,30,9,33,1.02
2013-4-19,59,39,33,58,35,30,97,83,73,29.87,29.49,30,14,35,0.54
2013-4-20,40,35,32,32,24,21,93,67,49,30.47,29.87,21,7,24,0.04
2013-4-21,51,40,28,34,27,22,88,62,42,30.57,30.40,19,5,21,0.01
2013-4-22,63,47,37,37,34,31,81,63,34,30.42,30.14,13,6,19,0.00
2013-4-23,66,52,39,52,44,37,97,76,54,30.14,29.90,25,6,25,0.57
2013-4-24,45,39,36,37,33,25,98,80,48,30.16,29.89,17,6,24,0.31
2013-4-25,49,43,38,39,35,32,87,73,55,30.37,30.10,20,8,25,0.02
2013-4-26,64,44,35,45,37,32,91,77,49,30.40,30.31,17,4,29,0.02
2013-4-27,68,57,42,47,43,39,92,62,36,30.35,30.09,17,4,18,0.00
2013-4-28,57,54,50,55,52,48,97,93,87,29.96,29.86,7,1,9,0.13
2013-4-29,70,54,45,56,50,44,99,86,60,29.93,29.88,15,3,23,0.11
2013-4-30,80,65,57,64,57,53,90,76,57,30.01,29.89,19,6,28,0.27
2013-5-1,83,76,61,63,59,56,83,57,42,30.19,30.01,22,5,26,0.00
2013-5-2,71,62,46,60,54,42,87,75,65,30.21,30.13,12,3,18,0.00
2013-5-3,69,60,45,59,54,43,94,80,70,30.08,29.99,7,1,14,0.00
2013-5-4,73,66,60,56,49,44,86,56,36,30.06,29.99,13,5,21,0.00
2013-5-5,73,70,65,51,49,47,59,48,40,30.05,29.99,13,5,17,0.00
2013-5-6,76,68,56,49,43,37,67,44,26,30.05,29.97,13,3,13,0.00
2013-5-7,76,60,48,56,50,45,95,70,46,30.05,30.01,10,1,12,0.00
2013-5-8,76,65,51,59,52,48,94,67,40,30.06,30.01,12,2,15,0.00
2013-5-9,80,68,49,62,56,48,97,70,37,30.00,29.92,12,2,27,0.22
2013-5-10,61,55,44,61,54,43,99,98,96,29.96,29.78,7,2,15,0.39
2013-5-11,54,45,38,51,42,36,99,91,73,30.02,29.84,27,5,33,0.03
2013-5-12,48,42,37,37,32,-100,93,72,57,30.14,30.01,19,8,25,0.02
2013-5-13,58,46,33,37,33,27,95,63,33,30.21,30.10,9,2,16,0.00
2013-5-14,79,61,50,60,44,31,65,53,46,30.10,29.69,13,4,16,0.00
2013-5-15,78,74,60,63,56,51,79,55,46,29.86,29.64,26,7,28,0.00
2013-5-16,80,60,51,57,32,-100,97,65,36,30.01,29.85,8,2,15,0.00
2013-5-17,79,66,56,58,47,-100,81,58,46,30.09,29.99,9,3,17,0.00
2013-5-18,76,65,58,64,52,45,90,63,50,30.12,30.01,8,2,14,0.00
2013-5-19,87,74,58,68,62,54,93,69,50,30.03,29.82,10,3,18,0.00
2013-5-20,87,77,71,70,68,65,91,75,52,29.88,29.77,12,4,26,0.00
2013-5-21,79,72,63,69,66,62,99,81,69,29.84,29.72,27,4,30,0.56
2013-5-22,70,67,63,67,65,61,97,91,81,29.76,29.68,14,4,24,0.63
2013-5-23,63,49,42,61,48,40,99,95,88,30.25,29.75,18,5,24,0.04
2013-5-24,52,46,37,41,38,34,95,76,53,30.43,30.25,11,4,17,0.01
2013-5-27,58,56,55,55,54,54,97,95,90,30.04,29.94,15,4,17,0.30
2013-5-28,79,69,55,72,65,54,100,90,77,29.94,29.81,19,6,32,0.43
2013-5-29,83,73,62,73,67,61,98,83,68,30.01,29.85,13,4,23,0.27
2013-5-30,85,80,74,73,71,69,92,74,62,30.00,29.91,18,8,31,0.07
2013-5-31,78,73,66,70,67,64,95,84,75,29.96,29.82,16,7,27,0.17
2013-6-1,76,71,62,67,65,60,93,81,72,29.81,29.73,20,8,27,0.37
2013-6-2,62,57,46,61,55,43,97,90,73,30.05,29.73,14,7,22,0.26
2013-6-3,54,44,40,46,42,39,97,92,73,30.14,30.05,3,0,4,0.01
2013-6-4,73,59,44,55,50,43,97,73,45,30.20,30.13,9,2,11,0.01
2013-6-5,61,59,58,54,51,48,84,74,66,30.15,30.12,5,2,13,0.00
2013-6-9,80,78,74,64,62,62,68,60,55,29.93,29.88,11,3,14,0.00
2013-6-10,74,66,62,66,64,61,99,93,69,29.89,29.78,8,2,18,0.22
2013-6-11,81,66,59,69,62,59,100,90,65,29.94,29.85,8,1,15,0.01
2013-6-12,85,74,64,77,70,63,97,87,75,29.93,29.65,11,2,21,0.20
2013-6-13,70,64,57,64,60,53,99,88,72,30.03,29.60,22,6,30,0.31
2013-6-14,76,63,52,62,56,51,98,82,59,30.13,30.03,14,2,17,0.01
2013-6-15,74,64,56,67,62,55,99,91,73,30.10,29.92,8,1,15,0.05
2013-6-16,82,73,65,68,65,57,95,79,45,29.94,29.88,17,5,22,0.03
2013-6-17,87,74,61,68,62,55,99,71,36,29.99,29.89,15,3,20,0.10
2013-6-18,74,66,59,63,60,55,98,83,62,30.06,29.91,12,3,15,0.10
2013-6-19,77,68,53,54,50,47,83,55,38,30.19,30.11,9,2,11,0.00
2013-6-20,84,66,53,65,57,51,98,76,46,30.20,30.16,6,1,11,0.00
2013-6-22,84,80,76,76,74,72,87,81,75,30.11,30.00,9,2,15,0.01
2013-6-23,86,77,67,75,70,65,95,78,58,30.09,29.99,16,4,23,0.00
2013-6-24,85,78,67,74,70,65,94,77,62,30.10,29.93,26,5,47,0.14
2013-6-25,87,75,67,78,72,65,99,88,71,30.02,29.85,13,4,19,0.66
2013-6-26,83,75,66,75,70,65,99,85,67,29.92,29.75,17,5,22,0.52
2013-6-27,78,69,64,74,68,64,99,96,87,29.80,29.71,11,1,18,0.50
2013-6-28,79,71,64,68,66,64,100,84,62,29.73,29.62,14,4,19,0.15
2013-6-29,75,67,62,68,64,61,98,92,78,29.76,29.59,11,2,16,0.39
2013-6-30,77,67,62,70,63,59,97,87,66,29.99,29.76,12,2,29,0.27
2013-7-1,75,63,52,61,56,49,98,78,55,30.09,29.99,12,3,17,0.25
2013-7-2,66,61,58,63,60,57,100,97,73,30.10,30.06,7,2,13,0.63
2013-7-3,71,65,61,67,63,61,100,96,88,30.11,30.05,1,0,5,0.61
2013-7-4,78,70,60,67,64,60,100,84,65,30.15,30.10,12,2,13,0.04
2013-7-5,81,69,60,70,65,59,98,88,66,30.12,30.06,5,1,11,0.02
2013-7-6,81,72,67,73,69,66,98,90,73,30.11,30.02,11,1,12,0.00
2013-7-7,84,76,68,75,71,67,96,86,71,30.07,30.00,11,3,15,0.00
2013-7-8,79,76,72,74,73,69,93,88,80,30.08,29.98,10,3,22,0.03
2013-7-9,86,78,68,79,75,67,98,89,78,30.02,29.91,16,4,24,0.01
2013-7-10,81,74,64,78,67,-100,97,82,62,30.02,29.87,15,5,22,0.00
2013-7-11,77,71,56,66,59,55,98,66,50,30.12,30.02,13,3,18,0.00
2013-7-12,79,66,55,62,59,54,98,79,55,30.16,30.13,4,1,7,0.00
2013-7-13,84,79,60,69,67,60,99,67,58,30.20,30.15,9,3,13,0.00
2013-7-14,88,79,68,74,71,66,93,78,60,30.26,30.20,7,1,7,0.00
2013-7-15,78,74,71,74,72,69,97,93,85,30.30,30.25,1,0,4,0.00
2013-7-16,90,85,73,78,76,73,100,77,65,30.35,30.28,10,2,10,0.00
2013-7-17,84,77,72,77,74,72,100,93,78,30.33,30.21,0,0,1,0.00
2013-7-18,92,87,74,80,77,74,99,74,62,30.23,30.00,12,4,19,0.00
2013-7-19,95,85,76,78,75,74,92,74,54,30.01,29.80,21,6,25,0.00
2013-7-20,86,80,72,74,67,-100,93,69,47,29.97,29.80,21,4,23,0.00
2013-7-21,87,79,65,71,68,62,90,70,54,30.00,29.90,7,2,23,0.09
2013-7-22,84,72,65,71,67,63,96,86,63,29.98,29.78,9,3,20,0.10
2013-7-23,76,70,62,71,64,55,89,82,71,29.93,29.73,19,4,27,0.00
2013-7-24,67,58,49,56,52,47,92,82,67,30.08,29.93,7,2,13,0.00
2013-7-25,76,65,52,60,55,47,96,74,39,30.13,30.07,11,2,14,0.00
2013-7-26,75,68,61,63,61,56,90,78,65,30.11,29.93,14,4,23,0.00
2013-7-27,69,63,58,64,59,50,98,85,71,29.93,29.87,15,4,21,0.08
2013-7-28,66,60,54,55,53,50,92,78,66,30.03,29.88,17,5,23,0.01
2013-7-29,69,65,56,60,58,53,90,78,70,30.23,30.03,13,3,16,0.00
2013-7-30,78,66,52,65,58,50,98,79,57,30.23,30.13,12,2,14,0.00
2013-7-31,69,67,64,69,65,62,99,95,85,30.13,29.98,11,1,13,0.07
2013-8-1,77,72,63,69,61,56,100,73,52,30.00,29.97,15,4,18,0.01
2013-8-2,79,63,57,70,60,56,96,90,73,30.00,29.88,10,1,13,0.64
2013-8-3,76,70,62,68,61,55,99,76,49,30.12,29.96,13,3,19,0.01
2013-8-4,73,65,56,60,56,54,97,75,55,30.22,30.12,13,2,16,0.01
2013-8-5,72,59,53,64,56,51,96,89,75,30.17,29.96,9,1,14,0.00
2013-8-6,80,70,64,73,67,61,97,89,76,29.97,29.88,12,4,16,0.37
2013-8-7,80,73,67,75,70,65,96,91,79,29.97,29.84,9,2,18,0.03
2013-8-8,76,65,61,64,61,59,94,88,65,30.03,29.96,7,1,13,0.03
2013-8-9,80,70,58,67,62,56,94,78,53,30.04,29.99,7,1,14,0.00
2013-8-10,79,72,63,66,61,57,91,71,50,30.14,30.04,10,2,14,0.00
2013-8-11,78,73,59,64,61,56,90,69,55,30.16,30.08,13,2,15,0.00
2013-8-12,83,72,66,70,66,63,91,83,62,30.09,29.89,11,2,16,0.14
2013-8-13,66,60,54,63,57,51,91,89,76,30.15,29.94,15,4,19,0.02
2013-8-14,67,54,47,53,49,45,91,83,59,30.22,30.15,6,1,12,0.01
2013-8-15,75,55,48,58,37,-100,91,73,51,30.22,30.14,13,2,14,0.00
2013-8-16,79,67,55,62,50,-100,91,64,45,30.23,30.17,6,2,11,0.00
2013-8-17,80,68,52,62,57,49,91,73,49,30.27,30.21,11,2,14,0.00
2013-8-18,82,66,54,65,55,-100,91,74,48,30.23,30.15,6,1,15,0.00
2013-8-19,83,64,58,68,48,-100,91,76,51,30.16,30.08,12,2,12,0.00
2013-8-20,84,72,63,69,65,60,90,82,61,30.14,30.10,7,1,7,0.00
2013-8-21,87,76,66,72,68,63,90,77,54,30.14,30.02,13,3,16,0.00
2013-8-22,78,72,68,69,67,65,89,85,75,30.12,30.03,5,2,10,0.43
2013-8-23,79,68,62,64,62,58,89,81,48,30.22,30.12,7,1,11,0.01
2013-8-24,83,67,55,64,57,50,88,72,45,30.31,30.22,9,1,12,0.01
2013-8-25,87,72,59,71,61,-100,87,71,58,30.29,30.19,9,3,15,0.00
2013-8-26,87,77,64,77,69,60,88,77,63,30.22,30.04,12,4,17,0.00
2013-8-27,91,79,73,77,73,69,89,81,62,30.04,29.93,14,3,18,0.00
2013-8-28,83,79,70,76,74,66,90,84,79,30.06,29.95,9,4,14,0.04
2013-8-29,86,74,64,73,67,58,87,77,56,30.10,30.03,11,1,16,0.01
2013-8-30,90,74,69,77,68,62,88,79,66,30.03,29.78,13,2,20,0.01
2013-8-31,80,72,68,72,68,64,89,86,76,29.86,29.80,7,1,14,0.00
2013-9-1,81,74,70,74,66,-100,89,81,73,29.85,29.77,13,3,15,0.00
2013-9-2,75,70,62,70,63,57,89,80,65,29.98,29.78,13,4,20,0.00
2013-9-3,71,62,58,60,56,54,90,83,68,30.08,30.01,3,0,9,0.00
2013-9-4,78,68,56,64,58,52,89,72,51,30.14,30.08,14,3,17,0.01
2013-9-5,76,66,58,58,53,46,89,67,34,30.27,30.14,11,2,16,0.01
2013-9-6,81,67,52,66,59,49,89,76,59,30.27,30.11,5,2,11,0.00
2013-9-7,86,76,65,69,67,60,90,75,48,30.04,29.94,11,3,15,0.03
2013-9-8,78,70,65,68,62,-100,87,77,69,30.07,29.97,8,2,15,0.02
2013-9-9,91,77,62,77,69,58,88,77,63,30.04,29.87,12,5,17,0.01
2013-9-10,95,88,73,72,70,67,88,57,41,30.05,30.00,21,6,23,0.00
2013-9-11,92,79,72,74,70,67,87,75,56,30.08,30.00,14,5,22,0.00
2013-9-12,80,71,63,68,61,54,91,74,46,30.06,29.93,17,3,20,0.00
2013-9-13,62,58,52,48,46,45,81,66,56,30.17,30.12,17,7,24,0.00
2013-9-14,70,62,42,52,46,40,91,60,40,30.21,30.11,10,1,12,0.00
2013-9-15,58,57,55,55,52,48,91,86,71,30.16,30.06,6,2,10,0.16
2013-9-16,62,56,49,52,50,46,88,82,71,30.37,30.16,12,2,14,0.16
2013-9-17,63,55,45,54,49,41,88,83,69,30.39,30.22,1,0,5,0.00
2013-9-18,55,55,55,51,51,51,87,87,87,30.15,30.15,0,0,2,0.00
2013-9-19,72,69,66,67,63,60,88,83,76,30.03,29.88,9,3,14,0.65
2013-9-20,75,72,69,70,66,64,86,83,76,29.88,29.79,19,6,24,0.01
2013-9-21,61,60,59,57,54,51,87,81,76,29.92,29.78,5,2,16,0.01
2013-9-22,62,56,46,50,47,42,88,72,57,30.10,30.01,13,4,16,0.00
2013-9-23,67,54,42,51,45,36,82,73,57,30.15,30.09,7,2,12,0.00
2013-9-24,70,59,50,51,50,47,88,72,49,30.12,29.98,4,1,9,0.00
2013-9-25,72,58,46,57,51,41,88,78,56,30.01,29.96,3,0,9,0.00
2013-9-26,78,54,46,56,47,39,86,78,37,30.13,30.01,0,0,5,0.00
2013-9-27,79,66,49,58,53,45,87,65,42,30.22,30.13,10,3,17,0.00
2013-9-28,81,74,54,61,59,50,85,59,45,30.16,29.98,18,5,24,0.00
2013-9-29,72,62,51,61,50,-100,86,74,66,30.04,29.96,11,3,19,0.28
2013-9-30,72,58,49,59,52,40,85,78,56,30.03,29.94,1,0,4,0.00
2013-10-1,76,68,56,67,62,51,85,82,73,29.98,29.94,4,2,15,0.00
2013-10-2,80,68,62,58,57,55,84,69,43,30.06,30.04,3,0,7,0.00
2013-10-3,75,68,62,69,61,56,84,79,69,30.06,29.92,5,1,11,0.15
2013-10-4,77,74,72,71,67,62,83,78,71,30.01,29.98,2,1,8,0.13
2013-10-5,76,73,71,69,64,62,82,74,67,29.97,29.86,9,4,21,0.00
2013-10-7,54,50,48,49,43,39,82,76,71,30.13,30.06,0,0,2,0.00
2013-10-8,72,61,47,54,50,39,81,68,49,30.24,30.13,6,2,7,0.00
2013-10-9,71,57,47,52,47,41,83,73,46,30.29,30.20,5,1,12,0.00
2013-10-10,73,57,46,56,47,37,81,71,50,30.20,30.10,0,0,5,0.00
2013-10-11,74,67,49,53,50,35,78,56,43,30.15,30.05,9,3,15,0.00
2013-10-12,66,60,54,53,49,45,73,68,64,30.10,30.06,3,2,12,0.10
2013-10-13,55,47,42,44,40,35,81,75,65,30.42,30.39,6,0,11,0.10
2013-10-14,64,53,41,47,42,32,80,67,53,30.42,30.27,9,1,10,0.01
2013-10-15,50,50,49,44,44,43,81,81,81,30.09,30.09,6,5,12,0.00
2013-10-16,52,50,47,46,43,39,81,78,67,29.95,29.88,16,6,19,0.01
2013-10-17,50,49,45,41,40,34,74,70,65,29.96,29.88,12,3,15,0.01
2013-10-18,49,48,45,43,41,34,81,78,64,29.98,29.91,13,4,13,0.00
2013-10-19,53,49,45,45,40,37,79,71,55,29.87,29.80,22,8,23,0.01
2013-10-20,61,56,40,48,44,33,81,65,59,29.92,29.79,25,7,25,0.01
2013-10-21,51,44,42,40,34,31,76,67,64,29.97,29.86,26,8,30,0.00
2013-10-22,40,38,37,35,32,30,81,77,75,29.97,29.95,7,3,12,0.00
2013-10-23,42,42,42,31,31,31,66,66,66,29.98,29.98,7,7,15,0.00
2013-10-24,42,38,35,34,31,27,79,73,69,30.27,30.03,13,4,18,0.00
2013-10-25,47,43,41,32,32,32,70,65,55,30.25,30.14,12,9,19,0.00
2013-10-26,51,48,43,42,38,32,73,67,62,30.06,29.85,21,7,30,0.00
2013-10-27,54,46,37,38,32,-100,81,63,51,30.06,30.00,10,2,21,0.00
2013-10-28,47,38,34,40,27,-100,80,76,63,30.39,30.06,6,1,11,0.00
2013-10-29,53,44,34,42,37,27,79,76,67,30.40,30.22,4,1,6,0.00